MPH82B EHAM-CYVR

Flight info

Callsign MPH82B
Flight time N/A
Altitude 29000
Route ANDIK Z733 KONOM DCT SUTEB/N0487F300 DCT KARLI DCT ALLOY DCT IPTON/M083F300 DCT 65N020W/M084F320 65N030W 66N040W 67N050W/M084F340 DCT EPMAN/N0487F340 DCT YZS DCT YMM/N0472F360 DCT YZU DCT NADPI DCT MERYT DCT BOOTH VITEV5
Aircraft MD11/H-SDE1E2E3FGHIJ2J3J4J5M1RWXY/LB1D1

Departure

Time 2026-04-30 09:18
Airport Amsterdam Airport Schiphol (EHAM)

Arrival

Time N/A
Airport Vancouver International Airport (CYVR)
Time Latitude Longitude Altitude Speed Heading
2026-04-30 08:40 52.29523 4.76203 6 ft 0 kts 148°
2026-04-30 09:02 52.29546 4.76177 8 ft 4 kts 141°
2026-04-30 09:02 52.29566 4.76148 8 ft 4 kts 127°
2026-04-30 09:02 52.29579 4.76114 6 ft 4 kts 98°
2026-04-30 09:03 52.29578 4.76085 6 ft 1 kts 58°
2026-04-30 09:03 52.29578 4.76084 6 ft 0 kts 58°
2026-04-30 09:07 52.29580 4.76089 6 ft 2 kts 58°
2026-04-30 09:07 52.29597 4.76133 8 ft 7 kts 58°
2026-04-30 09:08 52.29630 4.76220 7 ft 11 kts 58°
2026-04-30 09:08 52.29678 4.76343 6 ft 15 kts 58°
2026-04-30 09:08 52.29738 4.76502 8 ft 18 kts 58°
2026-04-30 09:08 52.29810 4.76689 6 ft 20 kts 58°
2026-04-30 09:09 52.29894 4.76854 8 ft 18 kts 44°
2026-04-30 09:09 52.29977 4.77026 7 ft 21 kts 57°
2026-04-30 09:09 52.30054 4.77239 6 ft 23 kts 59°
2026-04-30 09:09 52.30143 4.77445 6 ft 20 kts 46°
2026-04-30 09:10 52.30253 4.77548 6 ft 17 kts 16°
2026-04-30 09:10 52.30375 4.77574 5 ft 19 kts
2026-04-30 09:10 52.30513 4.77569 6 ft 19 kts 348°
2026-04-30 09:10 52.30633 4.77570 6 ft 16 kts
2026-04-30 09:11 52.30747 4.77594 6 ft 18 kts
2026-04-30 09:11 52.30887 4.77611 6 ft 22 kts
2026-04-30 09:11 52.31040 4.77623 6 ft 21 kts
2026-04-30 09:11 52.31180 4.77635 6 ft 21 kts
2026-04-30 09:12 52.31330 4.77649 6 ft 18 kts
2026-04-30 09:12 52.31367 4.77653 8 ft 5 kts
2026-04-30 09:12 52.31449 4.77638 6 ft 18 kts 340°
2026-04-30 09:12 52.31486 4.77598 6 ft 0 kts 313°
2026-04-30 09:13 52.31525 4.77525 6 ft 16 kts 325°
2026-04-30 09:13 52.31637 4.77526 6 ft 16 kts 22°
2026-04-30 09:13 52.31713 4.77630 6 ft 13 kts 37°
2026-04-30 09:14 52.31794 4.77687 5 ft 14 kts 11°
2026-04-30 09:14 52.31893 4.77704 6 ft 15 kts
2026-04-30 09:14 52.31996 4.77728 6 ft 14 kts 19°
2026-04-30 09:14 52.32067 4.77812 6 ft 11 kts 40°
2026-04-30 09:15 52.32110 4.77899 6 ft 9 kts 64°
2026-04-30 09:15 52.32106 4.77974 6 ft 6 kts 122°
2026-04-30 09:15 52.32064 4.78003 6 ft 8 kts 171°
2026-04-30 09:15 52.32033 4.78005 6 ft 0 kts 180°
2026-04-30 09:17 52.32032 4.78005 6 ft 2 kts 180°
2026-04-30 09:17 52.31887 4.77993 6 ft 42 kts 183°
2026-04-30 09:17 52.31476 4.77955 8 ft 77 kts 183°
2026-04-30 09:17 52.30808 4.77887 3 ft 122 kts 182°
2026-04-30 09:18 52.29778 4.77805 4 ft 172 kts 183°
2026-04-30 09:18 52.28532 4.77635 325 ft 178 kts 182°
2026-04-30 09:18 52.27265 4.77582 678 ft 189 kts 158°
2026-04-30 09:18 52.26102 4.78658 829 ft 197 kts 127°
2026-04-30 09:19 52.25709 4.80621 1575 ft 173 kts 92°
2026-04-30 09:19 52.25678 4.82489 2367 ft 168 kts 96°
2026-04-30 09:19 52.25627 4.84408 2838 ft 167 kts 95°
2026-04-30 09:19 52.25578 4.86353 3111 ft 178 kts 95°
2026-04-30 09:20 52.25530 4.88409 3427 ft 187 kts 95°
2026-04-30 09:20 52.25476 4.90653 3568 ft 206 kts 95°
2026-04-30 09:20 52.25420 4.93076 3714 ft 220 kts 95°
2026-04-30 09:20 52.25453 4.95635 3829 ft 232 kts 85°
2026-04-30 09:21 52.25948 4.98191 3962 ft 246 kts 66°
2026-04-30 09:21 52.27054 5.00418 4086 ft 263 kts 50°
2026-04-30 09:21 52.28485 5.02502 4245 ft 285 kts 46°
2026-04-30 09:21 52.30029 5.04618 4701 ft 295 kts 45°
2026-04-30 09:22 52.31622 5.06778 5064 ft 296 kts 45°
2026-04-30 09:22 52.33287 5.08737 5429 ft 303 kts 33°
2026-04-30 09:22 52.35271 5.10037 5799 ft 311 kts 23°
2026-04-30 09:22 52.37366 5.11029 5919 ft 314 kts 20°
2026-04-30 09:23 52.39480 5.11932 5943 ft 314 kts 19°
2026-04-30 09:23 52.41600 5.12823 5954 ft 317 kts 20°
2026-04-30 09:23 52.43724 5.13725 6738 ft 314 kts 20°
2026-04-30 09:23 52.45849 5.14640 7389 ft 316 kts 20°
2026-04-30 09:24 52.47983 5.15568 8052 ft 318 kts 20°
2026-04-30 09:24 52.50127 5.16507 8654 ft 320 kts 20°
2026-04-30 09:24 52.52258 5.17444 9249 ft 322 kts 20°
2026-04-30 09:24 52.54437 5.18405 9822 ft 325 kts 20°
2026-04-30 09:25 52.56643 5.19384 10154 ft 337 kts 20°
2026-04-30 09:25 52.58963 5.20421 10337 ft 352 kts 20°
2026-04-30 09:25 52.61338 5.21476 10837 ft 355 kts 20°
2026-04-30 09:25 52.63739 5.22538 11375 ft 358 kts 19°
2026-04-30 09:26 52.66152 5.23607 11911 ft 360 kts 19°
2026-04-30 09:26 52.67756 5.24319 12284 ft 362 kts 19°
2026-04-30 09:26 52.70199 5.25405 12801 ft 365 kts 19°
2026-04-30 09:26 52.73482 5.26804 13485 ft 370 kts 16°
2026-04-30 09:27 52.76024 5.27600 14023 ft 374 kts 13°
2026-04-30 09:27 52.78609 5.28271 14494 ft 377 kts 12°
2026-04-30 09:27 52.80337 5.28692 14806 ft 379 kts 12°
2026-04-30 09:27 52.82950 5.29319 15269 ft 381 kts 12°
2026-04-30 09:28 52.85590 5.29954 15730 ft 383 kts 12°
2026-04-30 09:28 52.88235 5.30597 16171 ft 386 kts 12°
2026-04-30 09:28 52.90902 5.31251 16638 ft 388 kts 13°
2026-04-30 09:28 52.93592 5.31916 17097 ft 390 kts 13°
2026-04-30 09:29 52.96293 5.32587 17552 ft 393 kts 13°
2026-04-30 09:29 52.99002 5.33262 17996 ft 395 kts 13°
2026-04-30 09:29 53.01735 5.33944 18436 ft 398 kts 13°
2026-04-30 09:29 53.04489 5.34633 18859 ft 400 kts 13°
2026-04-30 09:30 53.07251 5.35324 19242 ft 402 kts 13°
2026-04-30 09:30 53.09991 5.36011 19620 ft 404 kts 13°
2026-04-30 09:30 53.12775 5.36710 20003 ft 406 kts 12°
2026-04-30 09:30 53.15584 5.37415 20385 ft 407 kts 12°
2026-04-30 09:31 53.18400 5.38123 20762 ft 409 kts 12°
2026-04-30 09:31 53.21230 5.38836 21127 ft 411 kts 12°
2026-04-30 09:31 53.24067 5.39552 21494 ft 414 kts 12°
2026-04-30 09:31 53.26922 5.40273 21853 ft 416 kts 12°
2026-04-30 09:32 53.29765 5.40993 22206 ft 418 kts 12°
2026-04-30 09:32 53.32654 5.41725 22568 ft 420 kts 12°
2026-04-30 09:32 53.35550 5.42459 22910 ft 422 kts 11°
2026-04-30 09:32 53.38470 5.43201 23259 ft 424 kts 11°
2026-04-30 09:33 53.41402 5.43946 23598 ft 426 kts 11°
2026-04-30 09:33 53.44315 5.44688 23942 ft 429 kts 11°
2026-04-30 09:33 53.47272 5.45442 24236 ft 431 kts 11°
2026-04-30 09:33 53.50245 5.46202 24517 ft 432 kts 11°
2026-04-30 09:34 53.53226 5.46964 24805 ft 434 kts 11°
2026-04-30 09:34 53.56232 5.47734 25085 ft 436 kts 11°
2026-04-30 09:34 53.59239 5.48505 25365 ft 437 kts 11°
2026-04-30 09:34 53.62220 5.49230 25612 ft 440 kts
2026-04-30 09:35 53.65282 5.49525 25908 ft 442 kts
2026-04-30 09:35 53.68367 5.49475 26170 ft 445 kts
2026-04-30 09:35 53.71472 5.49277 26437 ft 446 kts 359°
2026-04-30 09:35 53.74582 5.49040 26706 ft 448 kts 359°
2026-04-30 09:36 53.77704 5.48810 26971 ft 450 kts 360°
2026-04-30 09:36 53.80839 5.48600 27223 ft 451 kts 360°
2026-04-30 09:36 53.83982 5.48408 27492 ft 453 kts
2026-04-30 09:36 53.87135 5.48226 27744 ft 454 kts
2026-04-30 09:37 53.90313 5.48050 27992 ft 456 kts 360°
2026-04-30 09:37 53.93456 5.47878 28244 ft 457 kts 360°
2026-04-30 09:37 53.96646 5.47703 28496 ft 459 kts 360°
2026-04-30 09:37 53.99842 5.47528 28719 ft 460 kts 360°
2026-04-30 09:38 54.03040 5.47352 28962 ft 462 kts 360°
2026-04-30 09:38 54.06278 5.47174 29012 ft 466 kts 360°
2026-04-30 09:38 54.12791 5.46812 29022 ft 464 kts 359°
2026-04-30 09:39 54.19204 5.46453 29031 ft 463 kts 359°
2026-04-30 09:39 54.25643 5.46094 29036 ft 463 kts 359°
2026-04-30 09:40 54.32086 5.45733 29024 ft 463 kts 359°
2026-04-30 09:40 54.38524 5.45372 29034 ft 463 kts 359°
2026-04-30 09:41 54.44968 5.45009 29037 ft 463 kts 359°
2026-04-30 09:41 54.51403 5.44642 29033 ft 463 kts 359°
2026-04-30 09:42 54.57812 5.44277 29034 ft 463 kts 359°
2026-04-30 09:42 54.64256 5.43910 29026 ft 463 kts 359°
2026-04-30 09:43 54.70693 5.43542 29038 ft 463 kts 359°
2026-04-30 09:43 54.77144 5.43173 29030 ft 463 kts 359°
2026-04-30 09:44 54.83549 5.42805 29047 ft 463 kts 359°
2026-04-30 09:44 54.89998 5.42434 29041 ft 464 kts 359°
2026-04-30 09:45 54.96486 5.42059 29037 ft 467 kts 359°
2026-04-30 09:45 55.02977 5.41917 29038 ft 466 kts
2026-04-30 09:46 55.09417 5.42182 29042 ft 466 kts
2026-04-30 09:46 55.15898 5.42505 29041 ft 466 kts
2026-04-30 09:47 55.22381 5.42800 29041 ft 465 kts
2026-04-30 09:47 55.28868 5.43079 29048 ft 465 kts
2026-04-30 09:48 55.35313 5.43354 29047 ft 465 kts
2026-04-30 09:48 55.41791 5.43631 29049 ft 465 kts
2026-04-30 09:49 55.48264 5.43910 29052 ft 465 kts
2026-04-30 09:49 55.54725 5.44190 29052 ft 465 kts
2026-04-30 09:50 55.61195 5.44471 29051 ft 465 kts
2026-04-30 09:50 55.67626 5.44751 29054 ft 464 kts
2026-04-30 09:51 55.74089 5.45033 29052 ft 464 kts
2026-04-30 09:51 55.80547 5.45316 29052 ft 464 kts
2026-04-30 09:52 55.87018 5.45602 29053 ft 464 kts
2026-04-30 09:52 55.93475 5.45889 29051 ft 464 kts
2026-04-30 09:53 55.99903 5.46174 29050 ft 464 kts
2026-04-30 09:53 56.06371 5.46462 29051 ft 464 kts
2026-04-30 09:54 56.12839 5.46750 29051 ft 464 kts
2026-04-30 09:54 56.19314 5.47039 29040 ft 464 kts
2026-04-30 09:55 56.25725 5.47327 29048 ft 463 kts
2026-04-30 09:55 56.32178 5.47617 29045 ft 463 kts
2026-04-30 09:56 56.38631 5.47909 29053 ft 463 kts
2026-04-30 09:56 56.45088 5.48201 29053 ft 463 kts
2026-04-30 09:57 56.51492 5.48493 29056 ft 463 kts
2026-04-30 09:57 56.57938 5.48787 29056 ft 463 kts
2026-04-30 09:58 56.64379 5.49082 29056 ft 463 kts
2026-04-30 09:58 56.70827 5.49380 29055 ft 463 kts
2026-04-30 09:59 56.83705 5.49978 29043 ft 462 kts
2026-04-30 10:00 56.93316 5.50424 29055 ft 462 kts
2026-04-30 10:01 57.02912 5.49475 29059 ft 460 kts 343°
2026-04-30 10:02 57.11780 5.42879 29064 ft 460 kts 335°
2026-04-30 10:02 57.17654 5.38175 29044 ft 459 kts 336°
2026-04-30 10:03 57.23558 5.33643 29060 ft 460 kts 337°
2026-04-30 10:03 57.29491 5.29154 29048 ft 459 kts 337°
2026-04-30 10:04 57.35352 5.24714 29047 ft 458 kts 337°
2026-04-30 10:04 57.41262 5.20215 29046 ft 458 kts 337°
2026-04-30 10:05 57.47159 5.15707 29050 ft 458 kts 337°
2026-04-30 10:05 57.53055 5.11184 29043 ft 459 kts 337°
2026-04-30 10:06 57.58914 5.06675 29043 ft 457 kts 337°
2026-04-30 10:06 57.64788 5.02137 29047 ft 457 kts 337°
2026-04-30 10:07 57.70669 4.97578 29044 ft 456 kts 336°
2026-04-30 10:07 57.76505 4.93038 29039 ft 458 kts 337°
2026-04-30 10:08 57.82370 4.88429 29038 ft 456 kts 336°
2026-04-30 10:08 57.88234 4.83794 29038 ft 458 kts 336°
2026-04-30 10:09 57.94139 4.79138 29035 ft 459 kts 336°
2026-04-30 10:09 57.99995 4.74516 29038 ft 459 kts 336°
2026-04-30 10:10 58.05891 4.69849 29162 ft 455 kts 336°
2026-04-30 10:10 58.08799 4.67541 29583 ft 451 kts 336°
2026-04-30 10:10 58.11688 4.65244 29960 ft 450 kts 336°
2026-04-30 10:11 58.17495 4.60611 30036 ft 460 kts 336°
2026-04-30 10:11 58.23468 4.55828 30035 ft 468 kts 336°
2026-04-30 10:12 58.29468 4.51010 30035 ft 466 kts 336°
2026-04-30 10:12 58.35407 4.46223 30032 ft 465 kts 336°
2026-04-30 10:13 58.41364 4.41402 30038 ft 465 kts 336°
2026-04-30 10:13 58.46356 4.37348 30033 ft 465 kts 336°
2026-04-30 10:14 58.52272 4.32528 30028 ft 466 kts 335°
2026-04-30 10:14 58.61223 4.25148 30028 ft 467 kts 335°
2026-04-30 10:15 58.67193 4.20206 30027 ft 466 kts 335°
2026-04-30 10:15 58.73122 4.15305 30027 ft 466 kts 335°
2026-04-30 10:16 58.79099 4.10354 30025 ft 466 kts 335°
2026-04-30 10:17 58.88047 4.02906 30025 ft 466 kts 335°
2026-04-30 10:17 58.96962 3.95444 30031 ft 466 kts 335°
2026-04-30 10:18 59.02920 3.90432 30022 ft 465 kts 335°
2026-04-30 10:19 59.11819 3.82912 30019 ft 465 kts 334°
2026-04-30 10:19 59.17731 3.77892 30020 ft 467 kts 334°
2026-04-30 10:20 59.23757 3.72752 30018 ft 478 kts 334°
2026-04-30 10:20 59.32898 3.64914 30010 ft 475 kts 334°
2026-04-30 10:21 59.38891 3.59701 30017 ft 474 kts 334°
2026-04-30 10:21 59.44948 3.54438 30010 ft 476 kts 334°
2026-04-30 10:22 59.50995 3.49190 30010 ft 472 kts 334°
2026-04-30 10:22 59.57034 3.43931 30013 ft 476 kts 334°
2026-04-30 10:23 59.63056 3.38667 30009 ft 476 kts 333°
2026-04-30 10:23 59.69114 3.33350 30003 ft 476 kts 333°
2026-04-30 10:24 59.75165 3.28017 30007 ft 476 kts 333°
2026-04-30 10:24 59.81228 3.22652 30000 ft 479 kts 333°
2026-04-30 10:25 59.87342 3.17220 30001 ft 480 kts 333°
2026-04-30 10:25 59.93397 3.11821 29995 ft 480 kts 333°
2026-04-30 10:26 59.99500 3.06356 29996 ft 480 kts 332°
2026-04-30 10:26 60.05600 3.00871 29993 ft 480 kts 332°
2026-04-30 10:27 60.11650 2.95365 29992 ft 480 kts 332°
2026-04-30 10:27 60.17731 2.89802 29990 ft 480 kts 332°
2026-04-30 10:28 60.23802 2.84263 29988 ft 479 kts 332°
2026-04-30 10:28 60.29881 2.78707 29984 ft 479 kts 332°
2026-04-30 10:29 60.35916 2.73170 29985 ft 479 kts 332°
2026-04-30 10:29 60.41980 2.67583 29980 ft 479 kts 332°
2026-04-30 10:30 60.48081 2.61936 29972 ft 482 kts 331°
2026-04-30 10:30 60.54193 2.56258 29969 ft 482 kts 331°
2026-04-30 10:31 60.60292 2.50569 29974 ft 482 kts 331°
2026-04-30 10:31 60.66358 2.44885 29964 ft 482 kts 331°
2026-04-30 10:32 60.72442 2.39162 29963 ft 482 kts 330°
2026-04-30 10:32 60.78536 2.33404 29962 ft 482 kts 330°
2026-04-30 10:33 60.84621 2.27614 29960 ft 482 kts 330°
2026-04-30 10:33 60.90659 2.21795 29943 ft 482 kts 330°
2026-04-30 10:34 60.96752 2.15935 29937 ft 482 kts 330°
2026-04-30 10:34 61.02843 2.10079 29966 ft 482 kts 330°
2026-04-30 10:35 61.08932 2.04206 29935 ft 483 kts 329°
2026-04-30 10:35 61.15007 1.98316 29931 ft 486 kts 329°
2026-04-30 10:36 61.21145 1.92344 29921 ft 486 kts 329°
2026-04-30 10:36 61.27268 1.86361 29924 ft 486 kts 329°
2026-04-30 10:37 61.33324 1.80318 29938 ft 483 kts 326°
2026-04-30 10:37 61.38589 1.72080 29925 ft 466 kts 307°
2026-04-30 10:38 61.42548 1.61497 29915 ft 461 kts 300°
2026-04-30 10:38 61.46296 1.50588 29910 ft 462 kts 301°
2026-04-30 10:39 61.50129 1.39876 29912 ft 463 kts 302°
2026-04-30 10:39 61.54055 1.29137 29899 ft 465 kts 302°
2026-04-30 10:40 61.57998 1.18362 29893 ft 465 kts 302°
2026-04-30 10:40 61.61926 1.07570 29888 ft 465 kts 302°
2026-04-30 10:41 61.65844 0.96741 29886 ft 465 kts 302°
2026-04-30 10:41 61.69751 0.85891 29882 ft 465 kts 301°
2026-04-30 10:42 61.73650 0.75009 29877 ft 465 kts 301°
2026-04-30 10:42 61.77541 0.64100 29881 ft 466 kts 301°
2026-04-30 10:43 61.81438 0.53119 29870 ft 467 kts 301°
2026-04-30 10:43 61.85326 0.42118 29869 ft 467 kts 301°
2026-04-30 10:44 61.89170 0.31128 29869 ft 466 kts 300°
2026-04-30 10:44 61.92998 0.19979 29876 ft 467 kts 300°
2026-04-30 10:45 61.96813 0.08936 29856 ft 464 kts 300°
2026-04-30 10:45 62.00631 -0.02115 29872 ft 463 kts 299°
2026-04-30 10:46 62.03900 -0.13824 29853 ft 458 kts 291°
2026-04-30 10:46 62.06760 -0.25940 29847 ft 457 kts 290°
2026-04-30 10:47 62.09602 -0.38083 29847 ft 457 kts 291°
2026-04-30 10:47 62.12476 -0.50212 29847 ft 458 kts 291°
2026-04-30 10:48 62.15358 -0.62359 29836 ft 457 kts 291°
2026-04-30 10:48 62.18212 -0.74445 29836 ft 457 kts 291°
2026-04-30 10:49 62.21070 -0.86620 29833 ft 457 kts 291°
2026-04-30 10:49 62.23921 -0.98838 29835 ft 457 kts 290°
2026-04-30 10:50 62.26751 -1.11031 29828 ft 455 kts 290°
2026-04-30 10:50 62.29561 -1.23214 29820 ft 455 kts 290°
2026-04-30 10:51 62.32349 -1.35369 29820 ft 455 kts 290°
2026-04-30 10:51 62.35145 -1.47626 29839 ft 455 kts 290°
2026-04-30 10:52 62.37927 -1.59889 29812 ft 455 kts 290°
2026-04-30 10:52 62.40644 -1.72186 29810 ft 454 kts 289°
2026-04-30 10:53 62.43337 -1.84457 29807 ft 454 kts 290°
2026-04-30 10:53 62.46068 -1.96785 29807 ft 454 kts 290°
2026-04-30 10:54 62.48802 -2.09120 29794 ft 454 kts 290°
2026-04-30 10:54 62.51522 -2.21456 29832 ft 455 kts 289°
2026-04-30 10:55 62.54227 -2.33795 29793 ft 452 kts 289°
2026-04-30 10:55 62.56913 -2.46130 29790 ft 453 kts 288°
2026-04-30 10:56 62.59594 -2.58515 29792 ft 453 kts 288°
2026-04-30 10:56 62.62247 -2.70841 29779 ft 453 kts 288°
2026-04-30 10:57 62.64905 -2.83261 29779 ft 452 kts 288°
2026-04-30 10:57 62.67554 -2.95714 29779 ft 452 kts 288°
2026-04-30 10:58 62.70173 -3.08097 29777 ft 454 kts 287°
2026-04-30 10:58 62.72803 -3.20612 29776 ft 454 kts 287°
2026-04-30 10:59 62.75393 -3.33209 29765 ft 453 kts 286°
2026-04-30 10:59 62.77927 -3.45729 29765 ft 453 kts 287°
2026-04-30 11:00 62.80505 -3.58330 29756 ft 452 kts 287°
2026-04-30 11:00 62.83074 -3.70854 29752 ft 451 kts 286°
2026-04-30 11:01 62.85205 -3.81300 29762 ft 453 kts 286°
2026-04-30 11:01 62.87769 -3.93940 29752 ft 454 kts 286°
2026-04-30 11:02 62.90321 -4.06587 29750 ft 453 kts 286°
2026-04-30 11:02 62.93271 -4.21313 29742 ft 453 kts 286°
2026-04-30 11:03 62.95389 -4.31952 29738 ft 453 kts 285°
2026-04-30 11:04 62.99139 -4.50930 29764 ft 453 kts 285°
2026-04-30 11:04 63.01637 -4.63672 29726 ft 454 kts 285°
2026-04-30 11:05 63.04131 -4.76472 29727 ft 454 kts 285°
2026-04-30 11:05 63.06596 -4.89204 29715 ft 454 kts 285°
2026-04-30 11:06 63.09016 -5.02075 29714 ft 454 kts 284°
2026-04-30 11:06 63.11423 -5.14985 29706 ft 454 kts 284°
2026-04-30 11:07 63.13836 -5.27788 29707 ft 454 kts 284°
2026-04-30 11:07 63.16271 -5.40696 29703 ft 454 kts 284°
2026-04-30 11:08 63.18698 -5.53633 29688 ft 454 kts 284°
2026-04-30 11:08 63.21110 -5.66578 29689 ft 454 kts 284°
2026-04-30 11:09 63.23494 -5.79461 29687 ft 454 kts 284°
2026-04-30 11:09 63.25880 -5.92438 29676 ft 453 kts 283°
2026-04-30 11:10 63.28251 -6.05423 29680 ft 453 kts 283°
2026-04-30 11:10 63.30611 -6.18430 29709 ft 453 kts 283°
2026-04-30 11:11 63.32962 -6.31481 29675 ft 454 kts 283°
2026-04-30 11:11 63.35288 -6.44472 29645 ft 454 kts 283°
2026-04-30 11:12 63.37615 -6.57558 29646 ft 454 kts 282°
2026-04-30 11:12 63.39890 -6.70680 29649 ft 452 kts 282°
2026-04-30 11:13 63.42113 -6.83751 29647 ft 453 kts 282°
2026-04-30 11:13 63.44380 -6.96914 29644 ft 455 kts 282°
2026-04-30 11:14 63.46670 -7.10173 29625 ft 457 kts 282°
2026-04-30 11:14 63.48956 -7.23456 29624 ft 457 kts 282°
2026-04-30 11:15 63.51223 -7.36732 29627 ft 456 kts 282°
2026-04-30 11:15 63.53464 -7.49955 29619 ft 456 kts 282°
2026-04-30 11:16 63.55706 -7.63287 29613 ft 457 kts 282°
2026-04-30 11:16 63.57940 -7.76663 29616 ft 457 kts 281°
2026-04-30 11:17 63.60149 -7.89964 29602 ft 453 kts 281°
2026-04-30 11:17 63.62322 -8.03167 29600 ft 454 kts 281°
2026-04-30 11:18 63.64499 -8.16495 29588 ft 454 kts 281°
2026-04-30 11:18 63.67745 -8.36530 29588 ft 453 kts 280°
2026-04-30 11:19 63.69824 -8.49931 29582 ft 452 kts 279°
2026-04-30 11:19 63.71908 -8.63339 29581 ft 453 kts 280°
2026-04-30 11:20 63.74003 -8.76665 29566 ft 453 kts 280°
2026-04-30 11:20 63.76111 -8.90082 29567 ft 453 kts 280°
2026-04-30 11:21 63.78205 -9.03503 29575 ft 453 kts 280°
2026-04-30 11:21 63.80295 -9.17011 29564 ft 454 kts 280°
2026-04-30 11:22 63.82361 -9.30456 29553 ft 454 kts 280°
2026-04-30 11:22 63.84425 -9.43996 29564 ft 455 kts 280°
2026-04-30 11:23 63.86482 -9.57598 29553 ft 455 kts 280°
2026-04-30 11:24 63.89527 -9.77912 29553 ft 455 kts 280°
2026-04-30 11:24 63.91552 -9.91562 29543 ft 454 kts 280°
2026-04-30 11:25 63.94546 -10.11933 29543 ft 454 kts 279°
2026-04-30 11:26 63.98391 -10.39297 29543 ft 453 kts 278°
2026-04-30 11:26 64.00334 -10.52990 29537 ft 452 kts 278°
2026-04-30 11:27 64.02270 -10.66616 29540 ft 451 kts 278°
2026-04-30 11:27 64.04180 -10.80162 29530 ft 451 kts 278°
2026-04-30 11:28 64.07038 -11.00643 29525 ft 451 kts 278°
2026-04-30 11:29 64.08931 -11.14342 29532 ft 451 kts 277°
2026-04-30 11:29 64.11727 -11.34788 29522 ft 450 kts 277°
2026-04-30 11:30 64.14506 -11.55365 29520 ft 450 kts 276°
2026-04-30 11:31 64.16342 -11.69103 29515 ft 450 kts 276°
2026-04-30 11:31 64.18158 -11.82794 29509 ft 450 kts 276°
2026-04-30 11:32 64.19961 -11.96545 29538 ft 449 kts 275°
2026-04-30 11:32 64.21681 -12.10339 29494 ft 448 kts 275°
2026-04-30 11:33 64.24290 -12.31032 29502 ft 449 kts 275°
2026-04-30 11:33 64.26036 -12.44741 29503 ft 449 kts 275°
2026-04-30 11:34 64.27785 -12.58561 29503 ft 449 kts 275°
2026-04-30 11:34 64.29519 -12.72378 29484 ft 449 kts 275°
2026-04-30 11:35 64.31229 -12.86137 29519 ft 449 kts 274°
2026-04-30 11:35 64.32935 -12.99978 29493 ft 447 kts 274°
2026-04-30 11:36 64.34621 -13.13795 29492 ft 447 kts 274°
2026-04-30 11:36 64.36297 -13.27652 29491 ft 447 kts 274°
2026-04-30 11:37 64.37957 -13.41496 29499 ft 447 kts 272°
2026-04-30 11:37 64.39590 -13.55202 29475 ft 443 kts 272°
2026-04-30 11:38 64.41209 -13.68965 29477 ft 443 kts 272°
2026-04-30 11:38 64.42804 -13.82774 29478 ft 443 kts 271°
2026-04-30 11:39 64.44320 -13.96585 29474 ft 443 kts 271°
2026-04-30 11:39 64.45852 -14.10339 29463 ft 443 kts 271°
2026-04-30 11:40 64.47413 -14.24169 29461 ft 443 kts 271°
2026-04-30 11:40 64.48970 -14.38008 29461 ft 443 kts 271°
2026-04-30 11:41 64.50516 -14.51884 29458 ft 443 kts 271°
2026-04-30 11:41 64.52037 -14.65694 29481 ft 445 kts 272°
2026-04-30 11:42 64.53566 -14.79742 29458 ft 449 kts 272°
2026-04-30 11:42 64.55095 -14.93864 29501 ft 451 kts 272°
2026-04-30 11:43 64.56612 -15.07998 29463 ft 450 kts 272°
2026-04-30 11:43 64.58115 -15.22171 29427 ft 450 kts 272°
2026-04-30 11:44 64.59588 -15.36210 29453 ft 450 kts 272°
2026-04-30 11:44 64.61058 -15.50390 29467 ft 450 kts 274°
2026-04-30 11:45 64.62518 -15.64623 29457 ft 453 kts 274°
2026-04-30 11:45 64.63910 -15.78947 29450 ft 452 kts 274°
2026-04-30 11:46 64.65294 -15.93299 29447 ft 452 kts 274°
2026-04-30 11:46 64.66697 -16.07560 29441 ft 453 kts 274°
2026-04-30 11:47 64.68109 -16.21908 29441 ft 453 kts 274°
2026-04-30 11:47 64.69510 -16.36275 29446 ft 453 kts 274°
2026-04-30 11:48 64.70888 -16.50602 29449 ft 457 kts 276°
2026-04-30 11:48 64.72044 -16.62744 29434 ft 460 kts 276°
2026-04-30 11:49 64.73427 -16.77368 29429 ft 459 kts 276°
2026-04-30 11:49 64.74795 -16.92013 29429 ft 459 kts 276°
2026-04-30 11:50 64.76144 -17.06640 29425 ft 459 kts 275°
2026-04-30 11:50 64.77479 -17.21295 29425 ft 459 kts 275°
2026-04-30 11:51 64.78791 -17.35869 29420 ft 459 kts 275°
2026-04-30 11:51 64.80096 -17.50533 29430 ft 459 kts 275°
2026-04-30 11:52 64.81345 -17.65242 29426 ft 458 kts 274°
2026-04-30 11:52 64.82547 -17.79947 29424 ft 458 kts 274°
2026-04-30 11:53 64.83783 -17.94672 29416 ft 459 kts 275°
2026-04-30 11:53 64.85019 -18.09289 29431 ft 459 kts 274°
2026-04-30 11:54 64.86250 -18.23971 29421 ft 455 kts 275°
2026-04-30 11:54 64.87459 -18.38609 29420 ft 456 kts 276°
2026-04-30 11:55 64.88647 -18.53175 29414 ft 456 kts 275°
2026-04-30 11:55 64.89828 -18.67858 29410 ft 455 kts 275°
2026-04-30 11:56 64.90993 -18.82520 29414 ft 455 kts 275°
2026-04-30 11:56 64.92143 -18.97190 29403 ft 455 kts 275°
2026-04-30 11:57 64.93279 -19.11885 29396 ft 455 kts 275°
2026-04-30 11:57 64.94391 -19.26466 29399 ft 452 kts 276°
2026-04-30 11:58 64.95486 -19.41000 29394 ft 448 kts 276°
2026-04-30 11:58 64.96528 -19.55523 29398 ft 449 kts 275°
2026-04-30 11:59 64.97517 -19.70129 29386 ft 450 kts 275°
2026-04-30 11:59 64.98539 -19.84730 29385 ft 451 kts 275°
2026-04-30 12:00 64.99576 -19.99373 29383 ft 451 kts 275°
2026-04-30 12:00 65.00473 -20.13917 29390 ft 448 kts 272°
2026-04-30 12:01 65.00973 -20.28549 29375 ft 444 kts 271°
2026-04-30 12:01 65.01391 -20.43122 29372 ft 444 kts 271°
2026-04-30 12:02 65.01819 -20.57652 29372 ft 445 kts 271°
2026-04-30 12:02 65.02253 -20.72254 29372 ft 445 kts 271°
2026-04-30 12:03 65.02883 -20.94196 29375 ft 445 kts 271°
2026-04-30 12:04 65.03284 -21.08801 29362 ft 442 kts 271°
2026-04-30 12:04 65.03665 -21.23193 29363 ft 439 kts 271°
2026-04-30 12:05 65.04034 -21.37654 29362 ft 440 kts 271°
2026-04-30 12:05 65.04389 -21.52178 29373 ft 441 kts 271°
2026-04-30 12:06 65.04731 -21.66708 29361 ft 442 kts 271°
2026-04-30 12:06 65.05060 -21.81256 29356 ft 442 kts 271°
2026-04-30 12:07 65.05372 -21.95714 29358 ft 440 kts 271°
2026-04-30 12:07 65.05643 -22.10137 29358 ft 436 kts 270°
2026-04-30 12:08 65.05844 -22.24509 29356 ft 437 kts 270°
2026-04-30 12:08 65.06075 -22.38823 29357 ft 437 kts 271°
2026-04-30 12:09 65.06324 -22.53228 29356 ft 437 kts 271°
2026-04-30 12:09 65.06566 -22.67613 29344 ft 437 kts 271°
2026-04-30 12:10 65.06795 -22.82007 29345 ft 436 kts 271°
2026-04-30 12:10 65.07008 -22.96330 29348 ft 431 kts 271°
2026-04-30 12:11 65.07204 -23.10449 29346 ft 431 kts 271°
2026-04-30 12:11 65.07388 -23.24693 29345 ft 432 kts 270°
2026-04-30 12:12 65.07558 -23.38859 29361 ft 433 kts 270°
2026-04-30 12:12 65.07715 -23.53169 29330 ft 436 kts 270°
2026-04-30 12:13 65.07860 -23.67547 29332 ft 436 kts 270°
2026-04-30 12:13 65.07991 -23.81889 29336 ft 433 kts 270°
2026-04-30 12:14 65.08107 -23.96105 29330 ft 431 kts 270°
2026-04-30 12:14 65.08162 -24.10250 29332 ft 431 kts 269°
2026-04-30 12:15 65.08178 -24.24538 29319 ft 431 kts 270°
2026-04-30 12:15 65.08227 -24.38685 29318 ft 431 kts 270°
2026-04-30 12:16 65.08286 -24.52937 29310 ft 431 kts 270°
2026-04-30 12:16 65.08335 -24.67158 29314 ft 430 kts 270°
2026-04-30 12:17 65.08383 -24.88193 29312 ft 425 kts 270°
2026-04-30 12:17 65.08399 -25.02246 29302 ft 426 kts 270°
2026-04-30 12:18 65.08400 -25.16336 29301 ft 426 kts 270°